StationID,Date,MaxTemp,MinTemp,Precipitation,Snowfall,SnowDepth
"USC00502645","2003-01-01",12.02,3.02,0.00,5.00,178.00
"USC00502645","2003-01-02",15.98,3.92,0.00,0.00,152.00
"USC00502645","2003-01-03",24.98,14.00,15.00,20.00,178.00
"USC00502645","2003-01-04",32.00,23.00,5.00,13.00,178.00
"USC00502645","2003-01-05",26.96,12.92,5.00,20.00,203.00
"USC00502645","2003-01-06",15.08,6.08,3.00,8.00,178.00
"USC00502645","2003-01-07",10.04,-0.04,0.00,3.00,178.00
"USC00502645","2003-01-08",17.06,1.94,0.00,0.00,178.00
"USC00502645","2003-01-09",28.04,17.06,0.00,0.00,178.00
"USC00502645","2003-01-10",30.02,24.98,0.00,0.00,178.00
"USC00502645","2003-01-11",30.92,21.92,0.00,0.00,178.00
"USC00502645","2003-01-12",33.08,21.02,0.00,0.00,178.00
"USC00502645","2003-01-13",28.94,15.08,0.00,0.00,178.00
"USC00502645","2003-01-14",17.06,12.02,0.00,0.00,178.00
"USC00502645","2003-01-15",15.08,10.04,0.00,0.00,178.00
"USC00502645","2003-01-16",24.98,14.00,0.00,0.00,178.00
"USC00502645","2003-01-17",30.92,19.94,18.00,3.00,178.00
"USC00502645","2003-01-18",33.98,21.02,89.00,112.00,279.00
"USC00502645","2003-01-19",32.00,17.96,10.00,0.00,254.00
"USC00502645","2003-01-20",33.98,26.96,0.00,0.00,254.00
"USC00502645","2003-01-21",26.96,19.04,0.00,0.00,254.00
"USC00502645","2003-01-22",24.08,17.06,0.00,0.00,254.00
"USC00502645","2003-01-23",19.94,12.92,0.00,0.00,254.00
"USC00502645","2003-01-24",19.04,10.94,0.00,0.00,254.00
"USC00502645","2003-01-25",19.04,10.04,0.00,0.00,254.00
"USC00502645","2003-01-26",24.08,12.02,0.00,0.00,254.00
"USC00502645","2003-01-27",21.92,17.06,0.00,0.00,254.00
"USC00502645","2003-01-28",28.94,19.04,0.00,0.00,254.00
"USC00502645","2003-01-29",28.94,21.02,0.00,0.00,254.00
"USC00502645","2003-01-30",35.06,26.96,10.00,0.00,254.00
"USC00502645","2003-01-31",35.96,28.04,0.00,0.00,229.00
"USC00502645","2003-02-01",37.94,26.96,0.00,0.00,229.00
"USC00502645","2003-02-02",33.98,21.92,0.00,0.00,229.00
"USC00502645","2003-02-03",48.02,26.96,0.00,0.00,229.00
"USC00502645","2003-02-04",48.02,35.06,10.00,0.00,51.00
"USC00502645","2003-02-05",46.04,39.02,20.00,0.00,0.00
"USC00502645","2003-02-06",46.94,32.00,0.00,0.00,0.00
"USC00502645","2003-02-07",42.08,33.08,0.00,0.00,0.00
"USC00502645","2003-02-08",50.00,37.04,15.00,0.00,0.00
"USC00502645","2003-02-09",48.92,33.08,10.00,0.00,0.00
"USC00502645","2003-02-10",48.02,37.04,15.00,0.00,0.00
"USC00502645","2003-02-11",48.02,37.04,8.00,0.00,0.00
"USC00502645","2003-02-12",37.94,32.00,0.00,0.00,0.00
"USC00502645","2003-02-13",42.08,33.98,5.00,0.00,0.00
"USC00502645","2003-02-14",39.02,26.06,0.00,0.00,0.00
"USC00502645","2003-02-15",30.02,21.92,0.00,0.00,0.00
"USC00502645","2003-02-16",28.04,15.08,0.00,0.00,0.00
"USC00502645","2003-02-17",21.92,12.92,0.00,0.00,0.00
"USC00502645","2003-02-18",28.94,19.04,3.00,8.00,0.00
"USC00502645","2003-02-19",28.04,15.08,0.00,0.00,0.00
"USC00502645","2003-02-20",21.02,10.94,0.00,0.00,0.00
"USC00502645","2003-02-21",26.96,17.96,0.00,10.00,0.00
"USC00502645","2003-02-22",30.92,23.00,0.00,0.00,0.00
"USC00502645","2003-02-23",42.98,28.94,0.00,0.00,0.00
"USC00502645","2003-02-24",42.98,33.08,10.00,0.00,0.00
"USC00502645","2003-02-25",37.04,32.00,8.00,0.00,0.00
"USC00502645","2003-02-26",39.02,33.08,3.00,0.00,0.00
"USC00502645","2003-02-27",42.08,32.00,3.00,0.00,0.00
"USC00502645","2003-02-28",42.98,32.00,0.00,0.00,0.00
"USC00502645","2003-03-01",42.98,28.94,0.00,0.00,0.00
"USC00502645","2003-03-02",46.94,33.98,10.00,0.00,0.00
"USC00502645","2003-03-03",48.02,37.04,0.00,0.00,0.00
"USC00502645","2003-03-04",39.02,26.96,0.00,0.00,0.00
"USC00502645","2003-03-05",41.00,21.92,0.00,0.00,0.00
"USC00502645","2003-03-06",37.94,19.04,0.00,0.00,0.00
"USC00502645","2003-03-07",37.04,17.06,0.00,0.00,0.00
"USC00502645","2003-03-08",35.96,15.98,0.00,0.00,0.00
"USC00502645","2003-03-09",33.98,10.04,0.00,0.00,0.00
"USC00502645","2003-03-10",32.00,12.02,0.00,0.00,0.00
"USC00502645","2003-03-11",28.94,6.08,0.00,0.00,0.00
"USC00502645","2003-03-12",23.00,3.92,0.00,0.00,0.00
"USC00502645","2003-03-13",8.96,-2.02,0.00,0.00,0.00
"USC00502645","2003-03-14",14.00,-5.98,0.00,0.00,0.00
"USC00502645","2003-03-15",35.06,8.96,0.00,0.00,0.00
"USC00502645","2003-03-16",46.94,28.94,0.00,0.00,0.00
"USC00502645","2003-03-17",46.94,23.00,0.00,0.00,0.00
"USC00502645","2003-03-18",44.96,21.02,0.00,0.00,0.00
"USC00502645","2003-03-19",39.92,26.06,3.00,5.00,0.00
"USC00502645","2003-03-20",28.94,21.92,61.00,135.00,127.00
"USC00502645","2003-03-21",24.08,15.08,10.00,25.00,127.00
"USC00502645","2003-03-22",30.02,10.04,0.00,3.00,102.00
"USC00502645","2003-03-23",35.06,8.96,0.00,0.00,76.00
"USC00502645","2003-03-24",33.08,12.92,5.00,8.00,76.00
"USC00502645","2003-03-25",46.04,21.92,0.00,0.00,76.00
"USC00502645","2003-03-26",48.92,24.08,0.00,0.00,51.00
"USC00502645","2003-03-27",35.06,28.94,36.00,51.00,102.00
"USC00502645","2003-03-28",39.02,21.92,5.00,10.00,102.00
"USC00502645","2003-03-29",41.00,24.08,0.00,0.00,51.00
"USC00502645","2003-03-30",37.94,19.04,0.00,0.00,51.00
"USC00502645","2003-03-31",37.04,12.92,0.00,0.00,51.00
"USC00502645","2003-04-01",35.06,10.94,0.00,0.00,25.00
"USC00502645","2003-04-02",35.06,15.98,0.00,0.00,25.00
"USC00502645","2003-04-03",41.00,17.96,0.00,0.00,25.00
"USC00502645","2003-04-04",41.00,17.96,0.00,0.00,25.00
"USC00502645","2003-04-05",39.92,19.04,0.00,0.00,0.00
"USC00502645","2003-04-06",37.94,17.96,0.00,0.00,0.00
"USC00502645","2003-04-07",46.04,23.00,0.00,0.00,0.00
"USC00502645","2003-04-08",50.00,24.08,0.00,0.00,0.00
"USC00502645","2003-04-09",50.00,28.94,0.00,0.00,0.00
"USC00502645","2003-04-10",42.98,30.02,0.00,0.00,0.00
"USC00502645","2003-04-11",59.00,35.06,0.00,0.00,0.00
"USC00502645","2003-04-12",50.00,37.04,0.00,0.00,0.00
"USC00502645","2003-04-13",44.96,39.02,8.00,0.00,0.00
"USC00502645","2003-04-14",50.00,33.98,0.00,0.00,0.00
"USC00502645","2003-04-15",44.06,30.02,0.00,0.00,0.00
"USC00502645","2003-04-16",42.98,33.08,8.00,8.00,0.00
"USC00502645","2003-04-17",51.08,30.92,0.00,0.00,0.00
"USC00502645","2003-04-18",55.94,28.04,0.00,0.00,0.00
"USC00502645","2003-04-19",55.04,30.92,0.00,0.00,0.00
"USC00502645","2003-04-20",51.08,35.06,0.00,0.00,0.00
"USC00502645","2003-04-21",48.02,37.04,0.00,0.00,0.00
"USC00502645","2003-04-22",50.00,37.04,0.00,0.00,0.00
"USC00502645","2003-04-23",60.98,35.96,0.00,0.00,0.00
"USC00502645","2003-04-24",62.96,39.02,0.00,0.00,0.00
"USC00502645","2003-04-25",64.04,37.04,0.00,0.00,0.00
"USC00502645","2003-04-26",68.00,37.94,0.00,0.00,0.00
"USC00502645","2003-04-27",64.94,41.00,0.00,0.00,0.00
"USC00502645","2003-04-28",62.96,42.08,0.00,0.00,0.00
"USC00502645","2003-04-29",64.04,37.04,0.00,0.00,0.00
"USC00502645","2003-04-30",66.92,37.94,0.00,0.00,0.00
"USC00502645","2003-05-01",62.96,37.94,0.00,0.00,0.00
"USC00502645","2003-05-02",66.92,37.04,0.00,0.00,0.00
"USC00502645","2003-05-03",60.98,37.94,0.00,0.00,0.00
"USC00502645","2003-05-04",57.92,46.04,0.00,0.00,0.00
"USC00502645","2003-05-05",50.00,37.04,79.00,0.00,0.00
"USC00502645","2003-05-06",50.00,35.06,0.00,0.00,0.00
"USC00502645","2003-05-07",57.02,35.06,0.00,0.00,0.00
"USC00502645","2003-05-08",62.06,41.00,0.00,0.00,0.00
"USC00502645","2003-05-09",53.96,42.08,58.00,0.00,0.00
"USC00502645","2003-05-10",48.92,39.92,20.00,0.00,0.00
"USC00502645","2003-05-11",46.04,39.02,53.00,0.00,0.00
"USC00502645","2003-05-12",48.02,39.02,5.00,0.00,0.00
"USC00502645","2003-05-13",51.98,35.06,66.00,0.00,0.00
"USC00502645","2003-05-14",53.06,35.06,56.00,28.00,0.00
"USC00502645","2003-05-15",60.98,39.92,48.00,0.00,0.00
"USC00502645","2003-05-16",53.96,42.98,53.00,0.00,0.00
"USC00502645","2003-05-17",59.00,37.94,0.00,0.00,0.00
"USC00502645","2003-05-18",59.00,37.04,0.00,0.00,0.00
"USC00502645","2003-05-19",60.98,35.96,0.00,0.00,0.00
"USC00502645","2003-05-20",64.04,37.04,0.00,0.00,0.00
"USC00502645","2003-05-21",66.02,39.92,0.00,0.00,0.00
"USC00502645","2003-05-22",68.00,42.08,0.00,0.00,0.00
"USC00502645","2003-05-23",64.04,46.04,0.00,0.00,0.00
"USC00502645","2003-05-24",64.04,41.00,3.00,0.00,0.00
"USC00502645","2003-05-25",66.02,44.96,74.00,0.00,0.00
"USC00502645","2003-05-26",60.98,44.06,3.00,0.00,0.00
"USC00502645","2003-05-27",60.98,48.92,0.00,0.00,0.00
"USC00502645","2003-05-28",68.00,37.94,0.00,0.00,0.00
"USC00502645","2003-05-29",71.96,44.06,0.00,0.00,0.00
"USC00502645","2003-05-30",64.04,50.00,15.00,0.00,0.00
"USC00502645","2003-05-31",62.06,44.96,10.00,0.00,0.00
"USC00502645","2003-06-01",62.06,42.98,0.00,0.00,0.00
"USC00502645","2003-06-02",62.06,42.08,0.00,0.00,0.00
"USC00502645","2003-06-03",66.02,42.98,15.00,0.00,0.00
"USC00502645","2003-06-04",69.98,42.98,0.00,0.00,0.00
"USC00502645","2003-06-05",62.96,48.92,0.00,0.00,0.00
"USC00502645","2003-06-06",62.06,48.92,0.00,0.00,0.00
"USC00502645","2003-06-07",64.94,42.98,0.00,0.00,0.00
"USC00502645","2003-06-08",60.08,44.96,0.00,0.00,0.00
"USC00502645","2003-06-09",69.98,48.02,10.00,0.00,0.00
"USC00502645","2003-06-10",66.92,53.06,3.00,0.00,0.00
"USC00502645","2003-06-11",75.02,51.98,0.00,0.00,0.00
"USC00502645","2003-06-12",75.02,55.04,0.00,0.00,0.00
"USC00502645","2003-06-13",78.98,55.94,0.00,0.00,0.00
"USC00502645","2003-06-14",68.00,51.98,140.00,0.00,0.00
"USC00502645","2003-06-15",62.06,48.92,41.00,0.00,0.00
"USC00502645","2003-06-16",66.92,48.02,0.00,0.00,0.00
"USC00502645","2003-06-17",71.96,46.94,0.00,0.00,0.00
"USC00502645","2003-06-18",62.96,51.98,10.00,0.00,0.00
"USC00502645","2003-06-19",64.04,51.08,0.00,0.00,0.00
"USC00502645","2003-06-20",64.04,51.08,8.00,0.00,0.00
"USC00502645","2003-06-21",60.98,50.00,15.00,0.00,0.00
"USC00502645","2003-06-22",69.08,50.00,8.00,0.00,0.00
"USC00502645","2003-06-23",66.02,50.00,0.00,0.00,0.00
"USC00502645","2003-06-24",66.92,46.94,0.00,0.00,0.00
"USC00502645","2003-06-25",60.98,51.08,0.00,0.00,0.00
"USC00502645","2003-06-26",60.08,48.02,3.00,0.00,0.00
"USC00502645","2003-06-27",62.96,50.00,13.00,0.00,0.00
"USC00502645","2003-06-28",71.96,48.92,0.00,0.00,0.00
"USC00502645","2003-06-29",75.02,51.08,0.00,0.00,0.00
"USC00502645","2003-06-30",78.98,51.98,0.00,0.00,0.00
"USC00502645","2003-07-01",71.96,55.04,30.00,0.00,0.00
"USC00502645","2003-07-02",68.00,53.96,196.00,0.00,0.00
"USC00502645","2003-07-03",66.92,48.92,33.00,0.00,0.00
"USC00502645","2003-07-04",77.00,48.92,0.00,0.00,0.00
"USC00502645","2003-07-05",75.02,55.94,3.00,0.00,0.00
"USC00502645","2003-07-06",71.96,55.94,0.00,0.00,0.00
"USC00502645","2003-07-07",80.06,51.98,0.00,0.00,0.00
"USC00502645","2003-07-08",84.92,55.94,0.00,0.00,0.00
"USC00502645","2003-07-09",80.06,60.08,0.00,0.00,0.00
"USC00502645","2003-07-10",69.98,57.02,0.00,0.00,0.00
"USC00502645","2003-07-11",73.94,57.92,0.00,0.00,0.00
"USC00502645","2003-07-12",80.06,53.06,0.00,0.00,0.00
"USC00502645","2003-07-13",82.04,55.04,0.00,0.00,0.00
"USC00502645","2003-07-14",87.08,62.96,0.00,0.00,0.00
"USC00502645","2003-07-15",80.96,57.92,0.00,0.00,0.00
"USC00502645","2003-07-16",69.08,57.92,8.00,0.00,0.00
"USC00502645","2003-07-17",68.00,55.94,0.00,0.00,0.00
"USC00502645","2003-07-18",75.92,48.02,0.00,0.00,0.00
"USC00502645","2003-07-19",82.94,51.98,0.00,0.00,0.00
"USC00502645","2003-07-20",80.96,59.00,0.00,0.00,0.00
"USC00502645","2003-07-21",69.08,57.92,46.00,0.00,0.00
"USC00502645","2003-07-22",62.06,53.96,56.00,0.00,0.00
"USC00502645","2003-07-23",75.02,55.04,0.00,0.00,0.00
"USC00502645","2003-07-24",64.94,53.96,56.00,0.00,0.00
"USC00502645","2003-07-25",64.04,53.06,3.00,0.00,0.00
"USC00502645","2003-07-26",66.92,53.96,5.00,0.00,0.00
"USC00502645","2003-07-27",62.96,53.06,13.00,0.00,0.00
"USC00502645","2003-07-28",62.06,53.06,33.00,0.00,0.00
"USC00502645","2003-07-29",64.94,51.98,8.00,0.00,0.00
"USC00502645","2003-07-30",62.96,51.98,13.00,0.00,0.00
"USC00502645","2003-07-31",71.06,53.06,3.00,0.00,0.00
"USC00502645","2003-08-01",69.08,46.04,0.00,0.00,0.00
"USC00502645","2003-08-02",71.06,44.06,0.00,0.00,0.00
"USC00502645","2003-08-03",64.04,51.98,8.00,0.00,0.00
"USC00502645","2003-08-04",73.04,46.04,0.00,0.00,0.00
"USC00502645","2003-08-05",75.92,48.02,0.00,0.00,0.00
"USC00502645","2003-08-06",77.00,55.04,0.00,0.00,0.00
"USC00502645","2003-08-07",80.96,53.06,0.00,0.00,0.00
"USC00502645","2003-08-08",82.94,57.02,0.00,0.00,0.00
"USC00502645","2003-08-09",84.02,57.92,0.00,0.00,0.00
"USC00502645","2003-08-10",82.04,59.00,0.00,0.00,0.00
"USC00502645","2003-08-11",71.06,57.92,51.00,0.00,0.00
"USC00502645","2003-08-12",64.94,57.02,114.00,0.00,0.00
"USC00502645","2003-08-13",64.04,53.96,18.00,0.00,0.00
"USC00502645","2003-08-14",60.98,53.06,3.00,0.00,0.00
"USC00502645","2003-08-15",60.98,53.96,18.00,0.00,0.00
"USC00502645","2003-08-16",59.00,53.96,99.00,0.00,0.00
"USC00502645","2003-08-17",59.00,48.92,53.00,0.00,0.00
"USC00502645","2003-08-18",64.04,48.02,3.00,0.00,0.00
"USC00502645","2003-08-19",62.06,50.00,3.00,0.00,0.00
"USC00502645","2003-08-20",62.06,48.02,150.00,0.00,0.00
"USC00502645","2003-08-21",64.94,46.04,0.00,0.00,0.00
"USC00502645","2003-08-22",66.92,46.04,61.00,0.00,0.00
"USC00502645","2003-08-23",69.98,46.04,0.00,0.00,0.00
"USC00502645","2003-08-24",62.06,51.08,48.00,0.00,0.00
"USC00502645","2003-08-25",55.04,51.98,30.00,0.00,0.00
"USC00502645","2003-08-26",60.08,50.00,30.00,0.00,0.00
"USC00502645","2003-08-27",59.00,48.92,0.00,0.00,0.00
"USC00502645","2003-08-28",66.02,48.92,0.00,0.00,0.00
"USC00502645","2003-08-29",57.92,48.02,0.00,0.00,0.00
"USC00502645","2003-08-30",60.08,50.00,13.00,0.00,0.00
"USC00502645","2003-08-31",60.08,50.00,3.00,0.00,0.00
"USC00502645","2003-09-01",64.04,51.08,3.00,0.00,0.00
"USC00502645","2003-09-02",66.02,50.00,53.00,0.00,0.00
"USC00502645","2003-09-03",60.08,50.00,30.00,0.00,0.00
"USC00502645","2003-09-04",59.00,48.92,5.00,0.00,0.00
"USC00502645","2003-09-05",62.06,46.94,0.00,0.00,0.00
"USC00502645","2003-09-06",64.04,42.98,0.00,0.00,0.00
"USC00502645","2003-09-07",64.94,39.02,0.00,0.00,0.00
"USC00502645","2003-09-08",60.98,46.04,5.00,0.00,0.00
"USC00502645","2003-09-09",57.92,46.04,3.00,0.00,0.00
"USC00502645","2003-09-10",64.94,42.08,0.00,0.00,0.00
"USC00502645","2003-09-11",68.00,44.06,0.00,0.00,0.00
"USC00502645","2003-09-12",64.04,44.06,0.00,0.00,0.00
"USC00502645","2003-09-13",60.08,42.98,102.00,0.00,0.00
"USC00502645","2003-09-14",55.04,30.92,0.00,0.00,0.00
"USC00502645","2003-09-15",55.94,30.02,0.00,0.00,0.00
"USC00502645","2003-09-16",57.02,32.00,0.00,0.00,0.00
"USC00502645","2003-09-17",55.94,33.08,0.00,0.00,0.00
"USC00502645","2003-09-18",51.98,35.06,0.00,0.00,0.00
"USC00502645","2003-09-19",51.08,32.00,0.00,0.00,0.00
"USC00502645","2003-09-20",46.94,33.08,41.00,0.00,0.00
"USC00502645","2003-09-21",50.00,35.96,5.00,0.00,0.00
"USC00502645","2003-09-22",48.92,37.04,0.00,0.00,0.00
"USC00502645","2003-09-23",53.06,30.02,0.00,0.00,0.00
"USC00502645","2003-09-24",42.98,39.02,30.00,0.00,0.00
"USC00502645","2003-09-25",46.04,37.94,69.00,0.00,0.00
"USC00502645","2003-09-26",57.02,37.04,0.00,0.00,0.00
"USC00502645","2003-09-27",57.02,37.94,0.00,0.00,0.00
"USC00502645","2003-09-28",57.92,42.08,43.00,0.00,0.00
"USC00502645","2003-09-29",53.06,48.02,56.00,0.00,0.00
"USC00502645","2003-09-30",64.04,51.08,38.00,0.00,0.00
"USC00502645","2003-10-01",64.94,51.98,20.00,0.00,0.00
"USC00502645","2003-10-02",62.96,48.92,5.00,0.00,0.00
"USC00502645","2003-10-03",51.08,46.94,193.00,0.00,0.00
"USC00502645","2003-10-04",53.96,41.00,5.00,0.00,0.00
"USC00502645","2003-10-05",55.94,42.98,0.00,0.00,0.00
"USC00502645","2003-10-06",55.94,44.06,0.00,0.00,0.00
"USC00502645","2003-10-07",51.08,42.08,0.00,0.00,0.00
"USC00502645","2003-10-08",51.98,37.04,0.00,0.00,0.00
"USC00502645","2003-10-09",46.94,39.92,81.00,0.00,0.00
"USC00502645","2003-10-10",48.02,33.08,0.00,0.00,0.00
"USC00502645","2003-10-11",48.02,32.00,0.00,0.00,0.00
"USC00502645","2003-10-12",46.94,28.04,0.00,0.00,0.00
"USC00502645","2003-10-13",42.98,30.02,0.00,0.00,0.00
"USC00502645","2003-10-14",42.08,33.98,0.00,0.00,0.00
"USC00502645","2003-10-15",51.08,30.92,0.00,0.00,0.00
"USC00502645","2003-10-16",44.96,26.06,0.00,0.00,0.00
"USC00502645","2003-10-17",51.08,30.02,0.00,0.00,0.00
"USC00502645","2003-10-18",37.04,28.94,0.00,0.00,0.00
"USC00502645","2003-10-19",39.02,32.00,8.00,0.00,0.00
"USC00502645","2003-10-20",44.06,32.00,8.00,0.00,0.00
"USC00502645","2003-10-21",39.02,28.94,0.00,0.00,0.00
"USC00502645","2003-10-22",41.00,28.04,0.00,0.00,0.00
"USC00502645","2003-10-23",41.00,28.94,0.00,0.00,0.00
"USC00502645","2003-10-24",42.08,35.96,13.00,0.00,0.00
"USC00502645","2003-10-25",39.92,37.04,124.00,0.00,0.00
"USC00502645","2003-10-26",48.92,33.98,8.00,0.00,0.00
"USC00502645","2003-10-27",44.96,30.92,0.00,0.00,0.00
"USC00502645","2003-10-28",37.94,28.94,0.00,0.00,0.00
"USC00502645","2003-10-29",32.00,23.00,0.00,0.00,0.00
"USC00502645","2003-10-30",37.94,26.96,0.00,0.00,0.00
"USC00502645","2003-10-31",37.94,30.02,0.00,0.00,0.00
"USC00502645","2003-11-01",35.06,30.02,66.00,0.00,0.00
"USC00502645","2003-11-02",39.92,33.08,13.00,0.00,0.00
"USC00502645","2003-11-03",41.00,35.06,0.00,0.00,0.00
"USC00502645","2003-11-04",37.94,32.00,0.00,0.00,0.00
"USC00502645","2003-11-05",37.94,32.00,0.00,0.00,0.00
"USC00502645","2003-11-06",46.94,35.96,23.00,0.00,0.00
"USC00502645","2003-11-07",46.94,37.04,38.00,0.00,0.00
"USC00502645","2003-11-08",48.02,35.96,69.00,0.00,0.00
"USC00502645","2003-11-09",42.98,33.98,0.00,0.00,0.00
"USC00502645","2003-11-10",39.02,26.96,10.00,13.00,0.00
"USC00502645","2003-11-11",33.08,21.02,0.00,0.00,0.00
"USC00502645","2003-11-12",30.02,21.92,53.00,89.00,102.00
"USC00502645","2003-11-13",24.08,15.08,8.00,13.00,102.00
"USC00502645","2003-11-14",15.08,6.98,0.00,0.00,102.00
"USC00502645","2003-11-15",8.96,1.04,0.00,0.00,102.00
"USC00502645","2003-11-16",5.00,-5.08,0.00,0.00,102.00
"USC00502645","2003-11-17",6.08,-5.08,0.00,0.00,102.00
"USC00502645","2003-11-18",5.00,-2.02,0.00,0.00,76.00
"USC00502645","2003-11-19",8.06,-0.04,0.00,0.00,76.00
"USC00502645","2003-11-20",17.96,8.06,8.00,8.00,76.00
"USC00502645","2003-11-21",42.08,17.96,53.00,69.00,127.00
"USC00502645","2003-11-22",30.02,19.04,66.00,94.00,203.00
"USC00502645","2003-11-23",21.02,10.04,48.00,66.00,229.00
"USC00502645","2003-11-24",21.92,17.06,66.00,107.00,279.00
"USC00502645","2003-11-25",21.02,6.98,10.00,15.00,279.00
"USC00502645","2003-11-26",10.04,-0.04,0.00,0.00,254.00
"USC00502645","2003-11-27",6.08,-5.98,3.00,5.00,254.00
"USC00502645","2003-11-28",12.92,5.00,61.00,132.00,356.00
"USC00502645","2003-11-29",12.92,5.00,3.00,8.00,305.00
"USC00502645","2003-11-30",15.98,6.98,48.00,124.00,381.00
"USC00502645","2003-12-01",21.02,3.02,3.00,8.00,356.00
"USC00502645","2003-12-02",3.92,-9.04,0.00,0.00,330.00
"USC00502645","2003-12-03",17.06,-7.96,0.00,0.00,330.00
"USC00502645","2003-12-04",21.02,12.92,0.00,0.00,330.00
"USC00502645","2003-12-05",21.92,8.96,0.00,0.00,279.00
"USC00502645","2003-12-06",14.00,3.02,0.00,0.00,279.00
"USC00502645","2003-12-07",17.06,5.00,0.00,0.00,279.00
"USC00502645","2003-12-08",24.98,12.92,0.00,0.00,279.00
"USC00502645","2003-12-09",44.06,24.98,0.00,0.00,229.00
"USC00502645","2003-12-10",33.08,28.04,15.00,20.00,254.00
"USC00502645","2003-12-11",28.94,24.08,0.00,0.00,229.00
"USC00502645","2003-12-12",26.06,19.04,0.00,0.00,229.00
"USC00502645","2003-12-13",24.98,17.96,0.00,0.00,229.00
"USC00502645","2003-12-14",23.00,12.92,0.00,3.00,229.00
"USC00502645","2003-12-15",26.06,17.96,0.00,0.00,229.00
"USC00502645","2003-12-16",21.92,14.00,0.00,0.00,229.00
"USC00502645","2003-12-17",24.08,14.00,56.00,81.00,305.00
"USC00502645","2003-12-18",24.98,8.96,3.00,8.00,305.00
"USC00502645","2003-12-19",21.92,10.04,66.00,117.00,406.00
"USC00502645","2003-12-20",19.94,12.92,23.00,74.00,432.00
"USC00502645","2003-12-21",24.08,14.00,56.00,135.00,508.00
"USC00502645","2003-12-22",26.06,17.06,66.00,135.00,610.00
"USC00502645","2003-12-23",19.04,10.04,23.00,61.00,610.00
"USC00502645","2003-12-24",10.94,3.02,5.00,15.00,584.00
"USC00502645","2003-12-25",6.98,-0.04,0.00,0.00,533.00
"USC00502645","2003-12-26",5.00,-4.00,0.00,0.00,508.00
"USC00502645","2003-12-27",-2.02,-5.98,0.00,0.00,508.00
"USC00502645","2003-12-28",17.06,-7.06,0.00,0.00,483.00
"USC00502645","2003-12-29",41.00,17.06,0.00,0.00,457.00
"USC00502645","2003-12-30",32.00,24.98,61.00,112.00,533.00
"USC00502645","2003-12-31",26.96,14.00,0.00,0.00,508.00
"USC00502645","2004-01-01",17.96,5.00,0.00,0.00,508.00
"USC00502645","2004-01-02",15.98,1.04,0.00,0.00,508.00
"USC00502645","2004-01-03",19.04,8.96,0.00,0.00,508.00
"USC00502645","2004-01-04",12.02,3.92,0.00,0.00,508.00
"USC00502645","2004-01-05",12.92,3.92,0.00,0.00,508.00
"USC00502645","2004-01-06",21.02,-0.94,0.00,0.00,508.00
"USC00502645","2004-01-07",15.98,-4.00,0.00,0.00,508.00
"USC00502645","2004-01-08",8.96,-5.98,0.00,0.00,483.00
"USC00502645","2004-01-09",28.04,8.06,56.00,107.00,584.00
"USC00502645","2004-01-10",33.98,15.98,53.00,152.00,686.00
"USC00502645","2004-01-11",26.06,17.06,0.00,0.00,660.00
"USC00502645","2004-01-12",19.04,5.00,0.00,0.00,635.00
"USC00502645","2004-01-13",15.98,6.98,0.00,3.00,610.00
"USC00502645","2004-01-14",8.06,-0.94,0.00,0.00,610.00
"USC00502645","2004-01-15",3.02,-11.02,0.00,0.00,610.00
"USC00502645","2004-01-16",-4.00,-13.00,0.00,0.00,584.00
"USC00502645","2004-01-17",-2.92,-16.06,0.00,0.00,559.00
"USC00502645","2004-01-18",-9.04,-16.06,0.00,0.00,559.00
"USC00502645","2004-01-19",3.92,-18.04,0.00,0.00,559.00
"USC00502645","2004-01-20",24.08,3.92,0.00,0.00,559.00
"USC00502645","2004-01-21",44.96,15.08,0.00,0.00,533.00
"USC00502645","2004-01-22",35.06,26.06,23.00,41.00,559.00
"USC00502645","2004-01-23",26.96,17.96,0.00,0.00,559.00
"USC00502645","2004-01-24",19.94,6.08,0.00,0.00,559.00
"USC00502645","2004-01-25",12.92,6.08,0.00,0.00,533.00
"USC00502645","2004-01-26",10.94,3.92,0.00,0.00,533.00
"USC00502645","2004-01-27",10.04,1.04,0.00,0.00,533.00
"USC00502645","2004-01-28",10.04,1.94,0.00,0.00,508.00
"USC00502645","2004-01-29",6.98,-5.08,0.00,0.00,508.00
"USC00502645","2004-01-30",-0.94,-11.02,0.00,0.00,508.00
"USC00502645","2004-01-31",12.92,-5.08,0.00,0.00,508.00
"USC00502645","2004-02-01",39.02,6.98,0.00,0.00,508.00
"USC00502645","2004-02-02",35.96,24.08,0.00,0.00,508.00
"USC00502645","2004-02-03",33.98,19.94,0.00,0.00,508.00
"USC00502645","2004-02-04",26.06,19.04,0.00,0.00,508.00
"USC00502645","2004-02-05",26.06,17.96,28.00,41.00,533.00
"USC00502645","2004-02-06",26.96,14.00,61.00,97.00,610.00
"USC00502645","2004-02-07",24.08,14.00,0.00,0.00,584.00
"USC00502645","2004-02-08",42.98,19.04,3.00,0.00,559.00
"USC00502645","2004-02-09",46.04,24.98,0.00,0.00,559.00
"USC00502645","2004-02-10",46.04,21.92,38.00,0.00,457.00
"USC00502645","2004-02-11",44.06,28.04,0.00,0.00,457.00
"USC00502645","2004-02-12",28.04,17.96,0.00,0.00,457.00
"USC00502645","2004-02-13",35.96,24.08,0.00,0.00,457.00
"USC00502645","2004-02-14",44.06,28.04,18.00,8.00,457.00
"USC00502645","2004-02-15",35.96,19.04,0.00,0.00,432.00
"USC00502645","2004-02-16",35.06,10.94,0.00,0.00,432.00
"USC00502645","2004-02-17",24.98,8.06,0.00,0.00,432.00
"USC00502645","2004-02-18",23.00,6.08,0.00,0.00,432.00
"USC00502645","2004-02-19",24.98,12.02,0.00,0.00,432.00
"USC00502645","2004-02-20",33.08,19.94,0.00,0.00,432.00
"USC00502645","2004-02-21",44.06,28.04,0.00,0.00,432.00
"USC00502645","2004-02-22",44.96,37.04,0.00,0.00,432.00
"USC00502645","2004-02-23",39.02,28.94,0.00,0.00,406.00
"USC00502645","2004-02-24",37.94,28.04,0.00,0.00,406.00
"USC00502645","2004-02-25",37.94,26.06,0.00,0.00,381.00
"USC00502645","2004-02-26",35.96,24.08,0.00,0.00,381.00
"USC00502645","2004-02-27",32.00,26.06,0.00,0.00,381.00
"USC00502645","2004-02-28",39.92,21.92,0.00,0.00,381.00
"USC00502645","2004-02-29",39.92,24.98,0.00,0.00,381.00
"USC00502645","2004-03-01",37.04,28.94,10.00,5.00,381.00
"USC00502645","2004-03-02",37.94,28.94,0.00,0.00,381.00